Location: Fort Worth, Tx
(32.7431°N, 97.3695°W)
Time: 20:10:24
(UTC-04:00)

Transit 2A Rocket - Visible Passes

Search period start: 12 April 2024 00:00
Search period end: 22 April 2024 00:00
Orbit: 587 x 907 km, 66.7° (Epoch: 12 April)

Date Brightness Start Highest point End Pass type
(mag) Time Alt. Az. Time Alt. Az. Time Alt. Az.
12 Apr 7.6 00:26:37 10° N 00:27:51 15° N 00:27:51 15° N visible
12 Apr 7.4 23:43:47 10° NNE 23:45:11 14° NNE 23:45:11 14° NNE visible
13 Apr 7.9 01:24:25 10° NNW 01:25:00 13° NNW 01:25:00 13° NNW visible
14 Apr 7.4 00:40:35 10° NNW 00:42:22 21° NNW 00:42:22 21° NNW visible
14 Apr 6.9 23:57:02 10° N 23:59:46 25° NNE 23:59:46 25° NNE visible
15 Apr 6.9 23:13:53 10° N 23:17:11 20° NE 23:17:11 20° NE visible
16 Apr 7.4 00:55:14 10° NW 00:57:01 21° NW 00:57:01 21° NW visible
16 Apr 7.3 22:31:40 10° NNE 22:33:46 12° NE 22:34:40 12° ENE visible
17 Apr 6.5 00:11:13 10° NNW 00:14:29 36° NNW 00:14:29 36° NNW visible
17 Apr 6.0 23:27:31 10° NNW 23:32:00 42° NNE 23:32:00 42° NNE visible
18 Apr 7.8 01:10:48 10° WNW 01:11:49 14° WNW 01:11:49 14° WNW visible
18 Apr 6.4 22:44:08 10° N 22:48:55 27° ENE 22:49:33 26° ENE visible
19 Apr 6.8 00:26:05 10° NW 00:29:22 30° WNW 00:29:22 30° WNW visible
19 Apr 7.0 22:01:17 10° NNE 22:04:42 16° NE 22:07:10 13° E visible
19 Apr 5.5 23:41:54 10° NNW 23:47:00 67° WNW 23:47:00 67° WNW visible
20 Apr 5.3 22:58:02 10° NNW 23:03:45 61° ENE 23:04:40 54° ESE visible
21 Apr 7.6 00:42:11 10° WNW 00:44:30 16° W 00:44:30 16° W visible
21 Apr 6.1 22:14:29 10° N 22:19:43 35° ENE 22:22:24 24° ESE visible
